Charter Quote
Worldwide +44-20-3874-8091 Call
Select Language Lang
SAFETY RELIABILITY EXPERIENCE

Avalon Airport (YMAV) - Jet Charter Services

AIRPORT INFORMATION
ICAOYMAV
IATAAVV
LOCATIONAvalon, Australia
FACILITY TYPEAIRPORT
Runway Length (ft) Width (ft) Surface Type Elevation (ft)
36/18 10000 148 ASP 34.98361

At Paramount Business Jets you can hire chartered private jets to and from Avalon Airport with as little as 4 hours of notice. All flights booked via Paramount Business Jets are operated by certified direct air carriers that meet and exceed the FAA part 135 and 121 protocol or a foreign equivalent safety authority. Furthermore, Paramount Business Jets subscribes to ARGUS for their third party safety checks of operators, aircraft, and crews prior each and every flight to and from Avalon Airport and worldwide.

  • Quote a trip using Avalon Airport or call us 24/7 - 365 days a year at +44-20-3874-8091.
Questions? Call +44-20-3874-8091

FBOs at Avalon Airport, YMAV, AVV

NAME ADDRESS PHONE WEBSITE
Avalon Airport Australia  LOCKED BAG #9  (613) 522-9462   

METAR Weather Data at Avalon Airport, YMAV, AVV

STATIONYMAV
OBSERVEDWed Mar 20, 02:30 UTC
NOWWed Mar 20, 02:55 UTC
AGE25 min ago
WINDS at 9 mph
VISIBILITY16 miles
METARYMAV 200230Z AUTO 19008KT 9999 // SCT014 OVC027 22/18 Q1015

Call us on +44-20-3874-8091 (24 Hours) to Hire a Private Jet or Get a Quick Quote.

Find Airports Near any Location

Processing
...